This demonstration page uses our WeatherBlox Daily Observations layout. Learn more.

Left ArrowRight Arrow

39.01783, -85.05884

Hourly Observations for February 15, 2021

Temp ( °F °C ) Dew Point ( °F °C ) Humidity (%) Winds ( mph kmh ) Pressure ( in mb ) Visibility ( mi km ) Precip ( " mm )
12:52 am 00:52 Cloudy 20 -6.7 12 -11.1 71 71 N 13 20 30.26 1025 7 11 0.00 0.00
1:52 am 01:52 Cloudy with Haze 19 -7.2 12 -11.1 74 74 NNE 16 26 30.26 1025 6 10 0.00 0.00
2:52 am 02:52 Cloudy 19 -7.2 13 -10.6 77 77 N 12 19 30.26 1025 7 11 0.00 0.00
3:13 am 03:13 Cloudy with Light Snow 19 -7.2 13 -10.6 77 77 N 12 19 30.30 1026 2 3 0.00 0.00
3:49 am 03:49 Mostly Cloudy with Light Snow 18 -8 14 -10 86 86 N 12 19 30.30 1026 1 1 0.02 0.51
3:52 am 03:52 Mostly Cloudy with Light Snow 18 -7.8 14 -10 84 84 N 12 19 30.24 1024 1 1 0.02 0.51
4:17 am 04:17 Mostly Cloudy with Light Snow 18 -7.8 13 -10.6 81 81 N 14 22 30.28 1025 1 2 0.00 0.00
4:52 am 04:52 Mostly Cloudy with Light Snow 18 -7.8 14 -10 84 84 N 12 19 30.21 1023 1 1 0.02 0.51
5:23 am 05:23 Cloudy with Light Snow 18 -7.8 13 -10.6 81 81 N 10 17 30.28 1025 1 1 0.01 0.25
5:52 am 05:52 Cloudy with Light Snow 17 -8.3 13 -10.6 84 84 N 13 20 30.22 1023 2 3 0.01 0.25
6:10 am 06:10 Cloudy with Mist and Fog 17 -8.3 12 -11.1 80 80 N 14 22 30.27 1025 6 10 0.01 0.25
6:52 am 06:52 Cloudy with Light Snow 17 -8.3 12 -11.1 80 80 NNE 14 22 30.22 1023 5 8 0.01 0.25
7:29 am 07:29 Cloudy with Light Snow 17 -8.3 11 -11.7 77 77 N 15 24 30.27 1025 5 8 0.00 0.00
7:52 am 07:52 Cloudy with Haze 17 -8.3 12 -11.1 80 80 NNE 15 24 30.21 1023 4 6 0.00 0.00
8:00 am 08:00 Cloudy with Haze 17 -8.3 12 -11.1 80 80 NNE 13 20 30.27 1025 2 3 0.00 0.00
8:33 am 08:33 Cloudy with Light Snow 17 -8.3 12 -11.1 80 80 N 14 22 30.28 1025 3 5 0.00 0.00
8:49 am 08:49 Cloudy with Light Snow 18 -8 12 -11 79 79 N 12 19 30.29 1026 2 3 0.00 0.00
8:52 am 08:52 Cloudy with Light Snow 17 -8.3 12 -11.1 80 80 N 12 19 30.25 1024 2 2 0.00 0.00
9:05 am 09:05 Cloudy with Light Snow 17 -8.3 12 -11.1 80 80 N 13 20 30.30 1026 1 1 0.00 0.00
9:52 am 09:52 Cloudy with Light Snow 17 -8.3 13 -10.6 84 84 NNE 15 24 30.19 1023 1 1 0.02 0.51
10:21 am 10:21 Cloudy with Light Snow 18 -7.8 13 -10.6 81 81 NNE 16 26 30.21 1023 1 2 0.00 0.00
10:52 am 10:52 Cloudy with Haze 20 -6.7 13 -10.6 74 74 NNE 15 24 30.18 1022 2 3 0.00 0.00
11:34 am 11:34 Cloudy with Haze 20 -6.7 13 -10.6 74 74 NE 13 20 30.19 1022 5 8 0.00 0.00
11:52 am 11:52 Cloudy 21 -6.1 14 -10 74 74 NE 15 24 30.14 1021 7 11 0.00 0.00
12:22 pm 12:22 Cloudy 21 -6.1 14 -10 74 74 NE 17 28 30.16 1021 7 11 0.00 0.00
12:52 pm 12:52 Cloudy 21 -6.1 14 -10 74 74 NNE 16 26 30.10 1019 7 11 0.00 0.00
1:05 pm 13:05 Cloudy 21 -6.1 14 -10 74 74 NNE 14 22 30.12 1020 7 11 0.00 0.00
1:52 pm 13:52 Cloudy with Light Snow 21 -6.1 15 -9.4 78 78 NE 15 24 30.02 1017 3 5 0.00 0.00
2:26 pm 14:26 Cloudy with Light Snow 21 -6.1 15 -9.4 78 78 NNE 17 28 30.03 1017 2 3 0.00 0.00
2:42 pm 14:42 Cloudy with Light Snow 21 -6.1 16 -8.9 81 81 NE 18 30 30.02 1017 1 1 0.00 0.00
2:52 pm 14:52 Cloudy with Light Snow 21 -6.1 16 -8.9 81 81 NE 14 22 29.99 1016 1 1 0.01 0.25
3:10 pm 15:10 Cloudy with Freezing Fog 21 -6.1 17 -8.3 85 85 NNE 15 24 30.02 1017 1 1 0.02 0.51
3:52 pm 15:52 Cloudy with Freezing Fog 21 -6.1 17 -8.3 85 85 NNE 16 26 29.93 1014 1 1 0.07 1.78
4:45 pm 16:45 Cloudy with Mist and Fog 21 -6.1 16 -8.9 81 81 NNE 16 26 29.94 1014 1 2 0.06 1.52
4:52 pm 16:52 Cloudy with Mist and Fog 21 -6.1 17 -8.3 85 85 NE 16 26 29.89 1012 1 2 0.07 1.78
5:00 pm 17:00 Cloudy with Mist and Fog 21 -6.1 16 -8.9 81 81 NE 14 22 29.92 1013 1 1 0.01 0.25
5:18 pm 17:18 Cloudy with Mist and Fog 21 -6.1 17 -8.3 85 85 NNE 14 22 29.89 1012 1 1 0.02 0.51
5:52 pm 17:52 Cloudy with Freezing Fog 21 -6.1 17 -8.3 85 85 NNE 18 30 29.82 1010 1 1 0.03 0.76
6:22 pm 18:22 Cloudy with Light Snow 21 -6.1 17 -8.3 85 85 NNE 15 24 29.85 1011 1 2 0.01 0.25
6:52 pm 18:52 Cloudy with Light Snow 21 -6.1 17 -8.3 85 85 NE 17 28 29.78 1009 1 2 0.02 0.51
7:41 pm 19:41 Cloudy with Light Snow 21 -6.1 17 -8.3 85 85 NE 17 28 29.78 1008 1 2 0.00 0.00
7:52 pm 19:52 Cloudy with Light Snow 20 -6.7 17 -8.3 89 89 NNE 16 26 29.73 1007 1 2 0.00 0.00
8:52 pm 20:52 Cloudy with Light Snow 20 -6.7 16 -8.9 85 85 NNE 13 20 29.73 1007 1 2 0.03 0.76
8:59 pm 20:59 Mostly Cloudy with Snow 20 -6.7 16 -8.9 85 85 NNE 15 24 29.77 1008 1 1 0.01 0.25
9:06 pm 21:06 Mostly Cloudy with Heavy Snow 20 -6.7 16 -8.9 85 85 N 10 17 29.78 1008 0 0 0.02 0.51
9:52 pm 21:52 Cloudy with Light Snow 18 -7.8 14 -10 84 84 NW 15 24 29.76 1008 1 1 0.08 2.03
10:01 pm 22:01 Cloudy with Light Snow 18 -7.8 14 -10 84 84 NNW 14 22 29.79 1009 2 3 0.00 0.00
10:14 pm 22:14 Mostly Cloudy with Snow 18 -7.8 14 -10 84 84 NW 14 22 29.79 1009 1 1 0.00 0.00
10:52 pm 22:52 Mostly Cloudy with Snow 17 -8.3 13 -10.6 84 84 NNW 17 28 29.76 1008 1 1 0.02 0.51
11:10 pm 23:10 Cloudy with Light Snow 17 -8.3 12 -11.1 80 80 NNW 18 30 29.81 1009 1 2 0.00 0.00
11:33 pm 23:33 Cloudy with Light Snow 17 -8.3 12 -11.1 80 80 NNW 16 26 29.80 1009 2 3 0.01 0.25
11:48 pm 23:48 Cloudy with Light Snow 16 -9 12 -11 86 86 NNW 16 26 29.79 1009 2 3 0.01 0.25
11:52 pm 23:52 Cloudy with Light Snow 16 -8.9 12 -11.1 84 84 NNW 14 22 29.75 1007 1 2 0.01 0.25

Powered by AerisWeather